Content
SEND FEEDBACK

Daily
Averages
Monthly
Summary
Germany

EMDEN, GERMANY


Home > Europe > Germany
Elevation: 39 feet     Latitude: 53 21N     Longitude: 007 12E

WEATHER
 
SELECT A DAY
Number of Records: 33,363;   Date Range: 2/20/97 - 8/20/14
 
SHARE

PRINT THIS DATA

[ ← Previous Day ]
WEATHER ALMANAC - FEBRUARY 5, 2013
[ Next Day → ]
[ °C ]   °F
Weather ElementAverageHighLow
Temperature34.7 °F41 °F (1:20 am)32 °F (9:20 pm)
Dewpoint32.2 °F35.6 °F (2:20 am)30.2 °F (8:20 pm)
Humidity90.7 %100 % (9:20 am)76 % (1:20 am)
Barometer29.36 in29.53 in (1:20 am)29.30 in (8:20 am)
Wind Speed11.8 mph23 mph (4:20 am)
Wind Gust34.5 mph (4:20 am)
Weather ElementAverage
Visibility5.1 mi
Wind DirectionWSW (247 °)

Weather ElementTotal
Precipitation---
Heating Degree Days28.5 (Base 65)
Averaged from 23 records on February 5, 2013
WEATHER CONDITIONS BREAKOUT
WIND DIRECTION BREAKOUT
WEATHER BY HOUR - FEBRUARY 5, 2013
[ °C ]   °F
Local TimeTemperatureDewpointHumidityBarometerVisibilityWind DirectionWind SpeedGust SpeedPrecipitationEventsConditions
1:20 AM41.0 °F33.8 °F76 %29.53 in6.2 miWSW (240°)18.4 mph33.4 mphMostly Cloudy
2:20 AM39.2 °F35.6 °F87 %29.47 in6.2 miWSW (240°)17.3 mphRainLight Rain Showers
3:20 AM39.2 °F33.8 °F81 %29.44 in6.2 miWSW (240°)18.4 mphMostly Cloudy
4:20 AM37.4 °F33.8 °F87 %29.42 in5.6 miWSW (250°)23.0 mph34.5 mphRainLight Rain Showers
5:20 AM37.4 °F33.8 °F87 %29.39 in6.2 miWSW (240°)16.1 mphRainLight Rain Showers
6:20 AM33.8 °F32.0 °F93 %29.36 in3.1 miWest (270°)20.7 mphSnow-ThunderstormLight Thunderstorms and Snow
7:20 AM33.8 °F32.0 °F93 %29.33 in6.2 miSW (230°)6.9 mphMostly Cloudy
8:20 AM33.8 °F32.0 °F93 %29.30 in6.2 miSW (230°)9.2 mphMostly Cloudy
9:20 AM33.8 °F33.8 °F100 %29.30 in5.0 miWSW (240°)11.5 mphRainLight Rain Showers
10:20 AM33.8 °F32.0 °F93 %29.33 in3.7 miWest (260°)9.2 mphSnowLight Snow Showers
11:20 AM33.8 °F32.0 °F93 %29.33 in6.2 miWSW (240°)8.1 mphMostly Cloudy
12:20 PM35.6 °F32.0 °F87 %29.33 in4.3 miWest (260°)11.5 mphSnowLight Snow Showers
1:20 PM33.8 °F32.0 °F93 %29.33 in0.7 miWSW (250°)6.9 mphSnowSnow Showers
2:20 PM33.8 °F32.0 °F93 %29.33 in2.2 miWSW (250°)8.1 mphSnowLight Snow Showers
3:20 PM33.8 °F32.0 °F93 %29.33 in3.1 miWest (270°)8.1 mphSnowLight Snow Showers
4:20 PM33.8 °F32.0 °F93 %29.33 in4.3 miWest (260°)16.1 mphMostly Cloudy
5:20 PM33.8 °F32.0 °F93 %29.33 in5.6 miWest (270°)10.4 mphSnowLight Snow Showers
6:20 PM33.8 °F32.0 °F93 %29.33 in6.2 miNW (310°)4.6 mphMostly Cloudy
7:20 PM33.8 °F32.0 °F93 %29.33 in6.2 miSW (230°)9.2 mphLight Small Hail Showers
8:20 PM33.8 °F30.2 °F87 %29.33 in6.2 miSW (220°)8.1 mphScattered Clouds
9:20 PM32.0 °F30.2 °F93 %29.33 in6.2 miSW (230°)9.2 mphScattered Clouds
10:20 PM32.0 °F30.2 °F93 %29.36 in6.2 miSW (230°)10.4 mphPartly Cloudy
11:20 PM32.0 °F30.2 °F93 %29.36 in6.2 miSW (220°)9.2 mphScattered Clouds
Hourly data recorded from EDWE, located miles away from Emden, Germany







STORIES FROM OUR PARTNERS